Terminal Aerodrome Forecast
Issued by NWS

Home | Current Version | Previous Version | Text Only | Print | Product List | Glossary On
Versions: 1 2 3 4 5 6 7 8 9 10 11 12 13 14 15 16 17 18
000
FTUS44 KMAF 221100
TAFCNM
TAF
KCNM 221136Z 2212/2312 26020G25KT P6SM BKN250
     FM221500 25010KT P6SM SCT250
     FM221800 30017G25KT P6SM SCT200
     FM230900 34020G30KT P6SM OVC150=

USA.gov is the U.S. government's official web portal to all federal, state and local government web resources and services.